Home   Weather   Penza   Past weeks

Flag for Russia Past Weather in Penza, Russia — Yesterday and Last 2 Weeks

Now
73 °F

Sunny.


Feels Like: 76 °F
Forecast: 48 / 74 °F
Wind: 15 mph from South

Location: Saratov / Tsentralny

Current Time: Apr 29, 2017 at 2:43:02 pm

Latest Report: Apr 29, 2017 at 2:00 pm


Visibility: 10 mi

Pressure: 30.27 "Hg

Humidity: 22%

Dew Point: 32 °F

Location of PenzaLocation

Past Weather in Penza — Graph

°F

Penza Temperature Yesterday

Maximum temperature yesterday: 68 °F (at 2:00 pm)
Minimum temperature yesterday: 48 °F (at 1:00 am)
Average temperature yesterday: 57 °F

High & Low Weather Summary for the Past Weeks

 TemperatureHumidityPressure
High73 °F (Apr 29, 1:00 pm)100% (Apr 18, 8:00 pm)30.42 "Hg (Apr 18, 8:00 pm)
Low28 °F (Apr 21, 4:00 am)20% (Apr 29, 1:00 pm)29.39 "Hg (Apr 24, 10:00 am)
Average45 °F66%29.93 "Hg
* Reported Apr 14 1:00 pm — Apr 29 1:30 pm, Penza, Weather by CustomWeather, © 2017

Note: Actual official high and low records may vary slightly from our data, if they occured in-between our weather recording intervals... More about our weather records

Advertising

Penza Weather History for the Previous 24 Hours

Scroll right to see more
 ConditionsComfort  
Time TempWeatherWind HumidityBarometerVisibility
1:30 pm
Sat, Apr 29
73 °FSunny.13 mph20%30.27 "Hg10 mi
1:00 pm73 °FSunny.13 mph20%30.27 "Hg10 mi
12:30 pm72 °FSunny.15 mph22%30.27 "Hg10 mi
12:00 pm72 °FSunny.15 mph22%30.27 "Hg10 mi
11:30 am68 °FSunny.13 mph30%30.30 "Hg10 mi
10:30 am64 °FSunny.13 mph37%30.30 "Hg10 mi
10:00 am64 °FSunny.13 mph37%30.30 "Hg10 mi
9:30 am57 °FSunny.13 mph41%30.33 "Hg10 mi
9:00 am57 °FSunny.13 mph41%30.33 "Hg10 mi
8:30 am55 °FSunny.13 mph44%30.33 "Hg10 mi
8:00 am55 °FSunny.13 mph44%30.33 "Hg10 mi
7:30 am52 °FSunny.8 mph67%30.33 "Hg10 mi
7:00 am52 °FSunny.3 mph67%30.33 "Hg10 mi
6:30 am46 °FSunny.3 mph62%30.33 "Hg10 mi
6:00 am46 °FSunny.3 mph62%30.33 "Hg10 mi
5:30 am45 °FSunny.6 mph66%30.33 "Hg10 mi
5:00 am45 °FSunny.6 mph66%30.33 "Hg10 mi
4:30 am50 °FClear.6 mph54%30.33 "Hg10 mi
4:00 am50 °FClear.10 mph54%30.33 "Hg10 mi
3:30 am54 °FClear.1 mph47%30.30 "Hg10 mi
3:00 am54 °FClear.6 mph47%30.30 "Hg10 mi
2:30 am55 °FClear.6 mph44%30.30 "Hg10 mi
2:00 am55 °FClear.8 mph55%30.30 "Hg10 mi
1:30 am57 °FClear.8 mph51%30.30 "Hg10 mi
1:00 am57 °FClear.10 mph51%30.30 "Hg10 mi
12:30 am57 °FClear.10 mph51%30.30 "Hg10 mi
12:00 am57 °FClear.8 mph51%30.30 "Hg10 mi
11:30 pm
Fri, Apr 28
55 °FClear.13 mph55%30.30 "Hg10 mi
11:00 pm55 °FClear.8 mph55%30.30 "Hg10 mi
10:30 pm57 °FClear.8 mph48%30.30 "Hg10 mi
10:00 pm57 °FClear.6 mph48%30.30 "Hg10 mi
9:30 pm59 °FClear.8 mph45%30.30 "Hg10 mi
9:00 pm59 °FClear.8 mph45%30.30 "Hg10 mi
8:30 pm63 °FClear.8 mph39%30.30 "Hg10 mi
8:00 pm63 °FClear.10 mph37%30.30 "Hg10 mi
7:30 pm64 °FClear.10 mph37%30.30 "Hg10 mi
7:00 pm64 °FSunny.10 mph37%30.30 "Hg10 mi
6:30 pm66 °FSunny.10 mph35%30.30 "Hg10 mi
6:00 pm66 °FSunny.10 mph35%30.30 "Hg10 mi
5:30 pm66 °FSunny.13 mph35%30.30 "Hg10 mi
5:00 pm66 °FSunny.13 mph35%30.30 "Hg10 mi
4:00 pm66 °FSunny.10 mph35%30.30 "Hg10 mi
3:30 pm68 °FSunny.10 mph33%30.33 "Hg10 mi
3:00 pm68 °FSunny.13 mph33%30.33 "Hg10 mi
2:30 pm68 °FSunny.13 mph35%30.33 "Hg10 mi
2:00 pm68 °FSunny.13 mph35%30.33 "Hg10 mi
Weather by CustomWeather, © 2017

See weather overviewHow to use our weather pages